GFSNGP_250_spd_114.txt.gz
Wind_Speed
44 46 45 40 35 31 32 31 30 26 26 25 22 18 17 18 18 20 23 30 30 30 29 22 20 18 19 11 14 19 26 28 32 33 34 37 36 37 38 41 48 47 49 46
43 43 36 35 34 32 29 29 25 18 18 18 16 17 21 18 23 28 36 34 37 34 31 29 25 27 19 17 21 21 30 31 34 37 37 39 41 39 41 41 48 46 44 45
40 36 34 33 31 29 25 22 17 16 18 18 17 20 24 24 31 38 37 31 34 33 30 31 30 31 25 22 30 28 36 41 40 41 36 37 42 42 43 43 46 47 49 52
32 31 32 29 27 22 19 16 16 16 19 19 23 23 24 35 39 43 39 35 37 33 27 26 30 30 27 23 33 38 39 39 46 49 46 42 39 38 41 44 52 54 52 51
26 27 29 25 21 18 18 16 18 20 22 24 26 28 28 40 42 43 39 38 37 30 29 27 30 28 25 26 33 37 37 41 44 47 48 40 41 38 41 41 44 49 53 59
24 22 25 21 19 20 20 20 21 22 25 28 30 32 31 38 37 44 42 39 38 36 28 30 27 25 27 26 33 42 38 43 48 49 51 47 47 48 46 46 49 51 59 62
22 22 22 21 21 22 22 22 24 22 23 29 32 39 43 41 42 39 45 44 41 40 31 33 31 27 32 31 30 33 42 49 46 42 46 43 46 53 56 58 61 65 66 66
21 22 24 24 23 23 25 23 24 25 25 26 29 36 46 49 44 41 37 46 46 44 40 33 37 37 34 39 37 37 45 47 50 52 53 50 55 55 56 58 66 66 69 71
23 24 24 25 26 26 25 24 23 25 23 26 30 34 38 50 53 51 45 44 46 47 43 42 41 42 40 42 43 43 46 51 52 56 60 58 60 60 62 67 69 72 73 73
25 26 27 28 24 24 26 25 25 26 27 28 31 32 36 40 52 55 53 54 51 49 51 48 47 42 49 47 52 52 52 54 58 60 61 64 66 68 68 74 77 78 82 82
29 28 29 31 29 27 25 26 28 30 32 31 30 33 34 35 37 42 48 46 54 59 57 60 57 54 46 51 55 57 60 62 62 65 67 69 71 74 75 78 80 80 82 84
32 30 29 30 31 28 24 25 31 35 35 35 32 29 31 33 33 35 39 43 46 51 51 50 58 65 64 59 55 60 65 69 70 72 75 76 78 82 82 84 86 89 90 92
35 34 33 32 30 28 27 27 27 30 30 29 33 35 35 34 35 39 45 50 53 54 57 60 60 59 59 63 68 69 69 74 75 77 82 85 87 88 89 89 91 94 97 99
35 37 36 35 33 32 31 31 30 29 30 33 36 37 36 38 40 44 49 51 51 52 55 57 58 59 62 64 67 70 72 74 80 85 86 87 89 94 97 98 101 104 105 106
32 37 37 36 35 34 34 33 33 33 33 35 36 37 38 40 42 43 44 43 46 49 51 53 56 58 59 61 64 68 72 74 78 81 88 92 96 99 102 105 107 110 113 116
30 34 37 37 34 33 34 33 33 35 37 38 39 39 41 42 42 40 39 40 40 41 42 45 47 50 52 53 55 59 62 67 73 78 81 84 88 95 101 109 113 114 117 120
29 31 32 31 28 28 29 29 31 36 34 37 38 37 39 40 38 35 35 36 35 36 36 37 37 39 40 42 45 49 52 56 60 65 71 75 79 85 89 94 100 105 111 115
27 27 26 26 27 30 27 27 31 28 29 31 32 33 31 29 30 29 27 28 28 29 30 31 33 34 35 37 40 43 46 50 54 59 64 68 72 77 81 85 90 94 97 100
26 27 27 28 28 27 27 30 29 26 27 29 27 25 24 23 23 23 22 24 25 26 27 28 30 32 34 37 40 44 48 52 55 60 64 68 72 76 80 84 88 90 91 91
26 27 25 25 27 28 29 31 29 30 30 28 25 23 22 22 22 21 21 23 25 26 27 29 31 33 37 41 45 49 53 57 60 63 66 69 72 76 80 83 84 84 84 85
26 28 28 28 28 29 30 30 30 28 27 25 24 23 23 23 22 21 22 24 25 27 28 31 34 39 43 47 50 54 57 61 63 66 68 71 74 76 74 73 73 73 73 73
24 26 29 29 29 29 28 28 28 27 25 24 23 23 23 22 22 22 23 25 26 28 31 35 40 44 48 52 55 60 63 64 66 69 73 75 75 74 72 70 69 67 67 67
22 23 24 24 25 26 27 27 26 24 23 23 22 23 23 23 22 23 24 26 28 32 37 41 46 50 54 58 63 66 67 69 71 73 75 74 72 70 69 67 66 64 63 62
21 22 24 24 23 24 24 24 23 22 22 22 22 23 23 23 23 24 26 29 33 37 42 47 52 56 60 65 68 70 70 71 73 74 73 71 70 68 65 63 62 61 59 58
20 21 22 22 22 22 23 23 22 22 23 23 23 23 22 23 24 28 30 34 38 43 48 53 57 61 65 68 70 70 70 71 73 72 70 68 67 65 62 60 59 59 58 57
20 19 20 20 21 22 22 21 21 23 23 22 22 22 22 24 27 30 34 38 43 48 53 58 63 65 68 70 70 70 71 71 70 68 66 65 62 60 58 57 56 56 56 55
19 20 20 21 22 22 22 22 23 23 22 22 23 23 24 27 30 34 39 43 49 54 58 63 65 68 70 71 70 70 70 68 66 65 63 61 59 57 56 55 55 54 53 52

GFSNGP_250_spd_117.txt.gz
Wind_Speed
42 41 40 43 42 40 40 38 33 28 29 29 28 27 19 17 17 22 24 33 28 27 27 22 18 11 8 5 2 11 14 15 14 16 23 26 22 22 27 33 36 42 43 48
37 41 43 44 41 39 33 28 23 23 24 24 22 18 17 17 24 27 29 37 33 33 27 25 24 22 10 7 5 11 21 21 20 20 20 25 29 30 31 33 36 40 38 39
41 43 42 39 32 29 26 24 20 21 21 19 18 18 18 26 27 31 36 40 40 35 27 26 28 26 22 17 17 14 20 23 23 24 23 22 27 31 36 36 38 39 39 45
41 39 34 31 27 26 25 21 17 19 18 19 20 21 24 30 30 39 38 39 45 41 35 32 29 29 22 21 24 22 24 22 26 30 28 21 27 29 28 24 28 32 36 43
37 33 31 27 27 25 23 18 16 19 21 25 26 25 26 35 37 42 42 40 41 43 38 33 29 30 31 24 28 25 33 26 30 37 28 31 34 34 30 25 29 33 35 44
33 29 29 25 23 20 20 17 19 22 26 32 31 28 26 35 41 43 45 45 40 36 31 31 26 31 29 30 25 32 35 35 39 45 43 37 44 41 39 36 37 42 41 45
30 27 26 24 21 20 21 20 21 24 28 36 36 32 31 32 37 44 46 45 44 39 33 33 28 30 34 30 25 28 39 41 45 48 43 47 50 50 44 47 50 52 54 50
27 25 25 24 23 23 22 21 24 25 27 33 38 39 36 37 36 48 49 48 46 44 40 38 32 35 35 31 32 30 43 42 46 51 50 46 53 51 54 54 51 57 57 58
25 25 26 26 26 24 24 24 27 28 26 30 37 39 41 41 40 42 42 44 47 47 47 45 40 33 41 40 40 40 41 50 46 49 56 59 59 58 55 57 59 59 65 66
26 26 26 27 28 28 26 27 27 28 29 29 31 36 39 46 46 44 48 48 46 46 46 44 50 46 43 47 46 50 47 49 50 55 56 62 63 61 63 62 65 68 69 73
27 26 28 29 30 30 28 29 28 30 30 30 33 34 37 42 48 51 50 51 50 50 55 52 50 48 50 45 53 54 56 56 55 59 64 63 69 68 67 70 72 75 77 77
29 28 31 30 31 31 29 27 29 29 29 31 33 34 36 37 40 44 50 55 58 60 58 60 61 60 56 56 55 53 63 63 64 65 66 73 71 75 75 77 79 83 84 85
30 29 31 31 33 32 34 32 33 33 32 33 34 35 35 37 38 44 47 51 56 62 69 71 71 67 65 65 66 63 62 67 71 73 73 75 80 81 82 86 88 91 92 93
31 32 33 34 33 32 35 35 34 37 40 31 33 35 36 37 39 44 47 51 56 60 61 63 64 63 64 65 65 67 67 71 75 79 83 86 86 88 91 93 93 95 98 101
31 35 38 37 37 35 37 38 38 38 35 35 38 39 41 43 44 46 48 51 52 52 52 55 58 61 63 64 64 66 67 70 73 76 83 87 92 94 96 96 99 104 107 109
30 36 41 42 41 40 37 39 40 41 40 39 39 40 40 41 42 42 43 42 43 44 48 51 54 58 61 61 62 62 63 64 66 70 74 76 82 95 102 104 107 111 113 115
29 35 40 43 44 44 41 41 40 40 42 42 43 42 43 44 43 45 45 43 40 40 39 39 40 41 43 45 46 47 48 49 52 57 63 69 74 79 83 90 101 112 120 121
29 32 36 40 43 44 44 41 41 40 41 45 44 42 46 44 44 44 42 41 36 34 36 35 36 36 37 38 40 41 42 45 47 50 53 57 62 67 74 81 87 92 98 106
28 30 32 34 36 38 39 39 37 37 39 39 36 34 34 35 35 33 34 33 34 33 32 30 30 31 33 34 36 37 39 42 45 49 53 57 61 66 70 76 81 85 90 96
27 28 30 30 32 34 36 35 36 37 39 40 36 32 34 32 30 30 30 30 31 30 29 29 29 29 32 33 35 38 41 45 49 53 57 60 64 68 72 77 81 87 91 90
25 27 29 29 30 32 34 36 36 37 39 37 34 33 32 29 29 30 30 31 30 29 28 28 29 30 33 35 37 41 46 51 54 57 60 63 66 70 74 78 80 79 78 77
25 25 28 29 29 31 33 35 36 37 37 36 34 33 30 30 31 31 31 30 28 28 29 30 31 33 35 39 43 48 51 54 58 61 64 68 71 74 76 76 75 73 71 69
23 25 27 29 30 33 34 34 35 35 34 33 33 31 31 31 31 31 30 28 29 29 30 32 34 37 41 45 49 53 57 61 64 67 70 72 75 76 75 74 72 70 68 66
21 24 26 28 29 29 30 31 32 32 31 31 30 30 31 30 31 30 29 29 29 30 33 35 39 42 46 50 55 59 63 67 69 71 73 75 76 75 73 71 69 67 67 65
22 23 25 27 28 29 30 31 31 31 30 29 31 31 31 32 31 30 30 30 31 33 36 40 43 47 51 56 60 64 68 70 72 73 74 75 74 72 70 69 67 65 63 62
21 22 24 26 27 28 29 30 29 29 29 30 31 31 32 31 31 31 31 31 34 36 39 43 49 52 56 60 65 69 70 72 73 74 74 73 70 69 67 65 64 63 61 60
21 23 24 26 26 26 27 27 28 28 29 30 31 31 31 31 31 32 32 35 37 40 44 49 52 56 61 65 69 70 72 72 73 74 71 69 68 66 64 63 62 60 59 57

GFSNGP_250_spd_120.txt.gz
Wind_Speed
45 42 41 41 44 45 46 44 40 40 38 39 37 33 28 23 23 21 19 19 24 28 28 21 16 15 12 6 4 8 13 12 12 12 14 16 18 26 32 40 44 41 45 47
37 39 40 42 44 43 42 42 38 34 33 30 29 26 21 22 19 20 25 34 34 30 28 26 22 20 12 8 5 12 11 13 14 16 16 18 26 31 33 41 44 40 36 38
38 39 38 40 42 41 38 33 28 28 26 24 23 18 20 20 24 30 36 39 34 30 30 29 28 23 16 14 11 19 12 14 18 17 19 21 23 25 28 32 31 35 40 38
36 36 38 41 40 34 28 23 25 23 20 18 17 17 20 26 31 34 44 35 37 33 31 29 33 30 25 19 18 17 19 19 20 19 21 23 24 23 24 27 32 38 44 43
37 37 38 40 32 28 24 19 20 18 16 18 21 22 26 32 35 37 44 37 34 38 36 31 28 35 31 27 23 21 23 21 22 22 26 24 24 28 27 30 29 32 36 39
36 36 37 33 27 25 23 16 17 18 20 26 27 26 29 36 37 40 44 38 33 35 42 41 34 30 34 31 27 28 28 25 23 26 29 26 27 31 34 32 33 36 37 39
38 36 33 29 24 23 21 16 17 20 24 29 32 31 31 35 39 42 41 43 39 36 35 43 42 36 33 33 27 27 33 35 32 36 36 33 34 39 36 34 34 37 44 43
37 31 30 26 25 21 19 18 19 22 28 35 38 35 36 34 33 40 42 44 41 38 41 42 42 39 33 34 37 30 34 37 39 40 45 43 42 43 45 43 43 48 50 51
34 30 29 26 24 21 19 19 21 25 30 41 42 39 36 35 32 36 47 47 46 47 47 48 48 49 36 39 40 42 39 37 42 46 53 52 51 50 51 51 50 51 51 55
30 31 26 26 24 23 19 21 23 29 31 35 45 44 42 40 40 42 42 44 48 51 50 55 53 51 51 39 42 44 44 44 44 55 55 59 61 58 58 61 62 61 58 59
31 29 27 27 26 24 23 23 26 31 35 35 38 46 50 50 48 46 47 48 46 50 56 59 58 60 59 55 49 50 52 53 54 52 63 62 66 68 65 67 70 72 69 65
30 29 29 27 26 26 25 25 30 31 31 33 34 35 42 47 49 51 51 54 56 57 59 61 63 61 60 59 56 55 58 62 62 62 60 67 69 75 73 73 74 81 81 77
28 29 30 29 28 27 27 27 30 34 36 35 36 36 38 43 43 46 53 59 62 62 62 63 66 66 66 65 64 62 61 61 65 70 70 68 70 75 77 78 82 85 88 89
30 30 31 31 29 28 29 30 31 35 35 34 34 34 39 40 42 46 50 53 57 60 66 70 69 68 68 68 67 66 66 64 65 69 75 77 79 78 79 84 86 89 95 97
31 32 32 33 31 31 32 33 35 38 38 38 39 40 41 40 43 45 49 53 56 59 63 63 63 64 65 67 67 68 68 69 71 72 74 79 83 85 87 89 89 94 99 101
32 33 34 34 33 33 34 37 36 40 43 43 46 47 46 45 45 50 50 51 53 56 57 55 56 57 60 62 63 63 62 61 62 64 65 69 77 81 85 95 96 101 102 104
32 31 35 35 35 36 37 37 36 39 44 45 45 45 45 48 51 50 48 48 49 50 47 47 46 47 50 53 55 58 59 60 61 62 64 66 68 71 74 78 82 89 102 111
29 29 33 35 37 39 39 38 39 40 40 43 44 46 48 48 49 49 48 52 54 52 49 47 44 42 41 42 44 46 48 50 51 52 54 55 58 61 66 71 76 81 86 93
27 28 31 35 38 40 42 44 45 44 43 44 45 45 47 50 52 50 49 51 51 48 46 45 43 41 40 40 41 42 44 45 46 49 51 53 56 59 63 66 70 73 78 82
26 27 29 32 36 39 42 44 45 45 47 48 48 50 51 52 48 43 45 44 46 45 44 43 41 40 40 41 42 43 44 44 45 48 50 53 56 59 62 65 69 73 77 81
25 27 28 30 33 36 39 42 44 45 45 47 48 49 50 48 45 42 43 45 43 42 42 41 40 40 41 42 42 42 43 44 47 50 53 55 58 61 63 67 70 73 76 81
25 26 27 29 31 34 36 38 40 41 43 45 47 48 48 47 45 41 42 41 40 42 42 41 41 41 42 43 42 43 44 47 51 54 56 58 62 63 66 67 70 73 76 78
22 25 26 29 30 31 33 35 37 39 41 43 45 46 46 45 41 41 41 40 43 41 41 41 41 43 43 42 43 45 48 52 55 57 60 63 65 67 69 72 74 76 77 76
22 24 26 27 29 31 32 33 35 38 39 40 41 41 42 42 41 42 42 41 41 41 41 42 43 43 43 44 46 49 53 56 58 60 63 66 69 71 73 75 77 77 75 72
21 22 24 26 27 28 30 30 32 33 34 36 38 40 40 40 40 40 41 42 41 41 42 43 43 42 44 46 50 53 56 59 61 64 67 70 73 74 76 77 75 73 72 70
20 22 24 25 27 28 29 30 32 34 35 36 37 37 38 40 40 42 40 41 42 41 41 42 44 45 47 50 54 57 60 63 65 67 70 73 74 76 75 73 71 71 69 68
21 22 23 24 25 27 28 30 30 32 34 36 37 37 38 39 39 39 40 41 41 42 41 42 44 47 50 54 57 61 63 65 68 71 73 74 75 73 72 70 69 67 66 64

GFSNGP_250_spd_123.txt.gz
Wind_Speed
81 69 58 52 50 45 42 43 42 43 38 43 41 42 39 34 31 25 21 20 19 19 20 22 19 20 17 17 13 11 9 12 12 14 16 18 18 20 20 18 21 24 30 39
55 46 44 40 38 36 41 44 41 40 42 39 35 32 26 26 23 20 19 20 22 29 29 25 21 21 17 13 10 15 16 12 15 16 15 17 19 17 13 14 20 25 27 37
42 34 31 34 35 37 41 40 41 39 34 29 27 22 22 22 20 19 21 27 35 35 31 25 21 21 19 16 14 19 15 15 16 18 21 17 20 21 23 23 23 30 34 44
33 27 27 33 34 38 39 38 32 29 25 23 21 18 20 19 20 25 31 34 37 35 30 27 25 24 20 16 17 18 18 17 16 16 18 20 16 18 25 27 31 33 36 42
28 25 30 33 35 38 35 27 27 24 22 19 18 19 19 22 27 33 38 37 38 34 32 33 29 30 29 23 21 21 21 23 23 17 21 22 22 22 25 29 33 36 43 49
27 28 29 35 34 36 28 22 24 21 19 18 19 20 23 28 32 36 39 40 39 33 33 32 34 31 34 34 29 25 27 25 25 23 24 27 25 26 27 26 25 35 39 46
28 28 32 35 35 29 26 21 22 20 17 19 25 27 30 27 32 37 40 42 37 30 35 37 38 34 36 35 38 34 31 29 29 27 29 29 29 32 34 33 34 35 39 42
30 31 32 36 31 25 23 20 21 20 19 24 29 32 36 32 33 33 34 39 37 33 34 36 39 43 43 42 38 35 36 38 36 36 35 36 35 36 38 37 39 40 43 46
34 34 33 31 29 24 21 20 20 22 24 28 34 35 38 35 35 36 36 38 37 35 35 41 38 41 40 40 41 42 41 40 36 44 45 44 45 44 44 45 47 45 47 50
34 39 29 27 27 24 21 21 21 24 27 33 37 40 38 40 40 39 38 38 42 44 43 44 49 46 46 47 48 48 43 43 47 45 50 52 53 53 53 52 56 54 52 53
39 36 30 26 26 24 23 22 23 25 29 34 41 44 42 42 43 46 44 45 47 48 53 56 53 55 55 55 57 56 57 52 52 54 53 53 57 60 63 63 62 62 63 63
37 34 30 25 26 25 25 23 23 26 31 35 41 49 49 49 50 47 49 49 53 55 57 57 61 62 63 62 63 61 61 61 60 59 61 61 61 61 65 71 72 72 72 72
36 30 29 26 26 27 26 26 23 26 29 34 38 43 47 53 53 52 51 53 55 56 58 59 63 68 67 68 69 70 67 67 65 65 65 68 68 70 70 70 74 81 82 82
30 29 27 27 27 27 28 26 27 27 29 33 38 40 41 43 45 47 51 54 58 62 65 67 67 67 69 69 70 73 73 72 72 70 72 75 77 75 74 77 76 81 85 92
28 27 28 29 29 29 29 29 29 30 31 34 39 39 42 44 46 48 49 51 53 56 60 62 63 66 69 68 67 69 71 72 72 71 71 70 73 78 83 88 84 85 86 91
29 28 30 31 31 31 30 30 30 32 32 34 36 39 42 43 45 45 45 47 50 53 56 57 58 60 62 62 59 61 64 67 68 68 67 66 65 65 68 76 86 91 94 94
30 30 31 33 32 32 31 32 31 32 35 36 37 40 43 44 45 47 48 50 54 55 55 55 54 54 53 52 52 53 54 57 60 61 61 61 62 63 64 66 67 70 74 81
29 29 31 32 32 32 32 33 33 34 37 38 41 43 47 48 47 48 50 54 54 54 53 53 55 58 57 55 52 49 49 49 51 52 53 55 56 57 59 60 62 65 68 71
27 27 28 29 30 31 32 33 34 35 36 39 41 42 46 49 50 51 51 53 55 55 53 53 58 59 56 54 53 50 48 47 47 48 49 49 50 52 54 57 60 63 64 67
24 25 24 26 27 30 31 32 33 34 37 39 41 43 44 45 48 52 53 55 56 55 56 58 57 58 56 56 52 50 49 48 48 49 49 50 52 54 57 59 60 62 64 67
23 23 24 24 27 28 29 31 34 37 40 41 43 46 47 48 51 53 56 58 58 58 57 54 55 54 54 52 50 50 50 51 50 51 52 53 56 58 60 60 62 64 67 70
22 23 24 24 25 28 30 32 35 40 42 44 46 48 49 51 55 58 59 59 57 55 55 54 53 52 51 50 50 50 50 51 52 52 54 56 58 59 60 63 65 69 71 75
22 23 22 23 24 26 29 32 35 38 41 44 47 49 51 53 55 56 56 55 53 53 52 51 50 50 50 51 50 50 51 51 52 52 54 57 59 61 63 67 69 72 75 78
21 21 22 23 24 26 29 30 33 36 40 43 46 48 48 50 51 49 49 49 49 51 51 48 48 49 49 48 50 50 51 52 52 54 56 58 61 63 66 68 71 75 77 78
20 21 22 23 23 24 27 29 31 33 36 38 40 41 43 44 47 47 48 46 46 47 48 48 49 48 48 49 50 51 52 53 54 56 58 61 63 66 69 72 75 76 79 79
21 21 21 23 24 24 25 27 30 32 33 35 37 38 40 40 42 43 44 44 45 46 46 47 47 49 48 48 49 50 51 52 55 58 60 63 66 69 72 74 76 77 76 74
23 22 22 22 23 24 26 27 28 29 31 33 34 35 36 37 39 40 41 42 42 43 45 47 48 49 50 50 51 51 52 55 58 60 63 66 69 72 74 75 75 74 72 71

GFSNGP_250_spd_129.txt.gz
Wind_Speed
104 102 97 95 91 87 77 71 69 68 62 57 49 48 46 45 43 41 41 38 34 30 27 26 20 16 16 18 19 18 16 14 8 6 8 8 8 7 9 17 21 26 28 35
99 91 83 72 73 71 67 65 58 52 49 44 43 44 43 41 40 36 32 28 25 23 21 17 14 18 22 24 23 19 16 13 12 13 8 9 8 9 9 10 13 17 20 20
72 70 64 60 63 60 55 51 44 38 39 42 42 40 39 38 33 28 23 21 20 19 18 16 23 26 25 26 22 22 21 16 17 12 11 11 9 12 12 13 15 20 26 26
58 58 53 55 52 45 41 38 34 33 37 40 39 38 36 31 27 23 21 21 20 19 22 22 30 27 27 26 23 23 22 24 20 17 18 17 13 15 19 20 19 19 23 23
47 49 44 45 40 35 31 32 31 33 37 37 37 32 29 27 25 21 19 18 20 24 27 29 32 28 28 28 28 26 19 19 27 22 22 24 22 22 23 22 22 25 26 27
44 41 35 38 34 31 30 29 31 33 37 34 31 27 26 24 22 20 17 20 26 29 35 33 29 29 30 28 28 27 24 20 19 22 25 28 31 27 28 26 25 24 28 28
38 32 34 35 29 28 28 30 32 34 36 32 27 25 24 23 23 20 19 27 31 32 36 34 29 29 30 33 33 32 29 28 26 26 27 29 30 26 27 32 32 29 29 30
32 28 33 31 27 28 30 30 32 35 34 28 25 24 24 24 24 24 26 35 37 34 35 40 34 34 33 35 36 37 37 35 34 33 33 33 32 33 32 31 35 38 37 36
27 30 33 30 28 30 31 32 32 34 31 26 25 24 25 26 27 28 30 37 41 39 36 37 42 37 36 37 39 41 43 43 44 44 42 42 43 40 39 38 37 37 43 42
29 32 30 30 32 32 34 33 31 31 29 27 25 25 27 29 31 33 37 35 41 43 43 41 40 45 43 44 46 47 47 48 51 51 51 52 51 52 48 46 44 46 47 47
32 32 30 33 34 34 33 35 32 29 31 29 27 27 29 32 34 38 41 40 38 42 45 44 42 45 45 50 50 47 52 54 54 54 58 58 58 58 59 59 58 56 55 56
29 31 32 36 36 35 37 36 33 30 31 31 29 29 32 35 38 44 41 44 43 44 47 48 48 50 52 53 56 59 60 60 59 58 58 58 60 62 62 65 65 65 65 65
31 34 36 37 38 38 38 37 37 33 32 32 33 33 33 37 40 45 47 46 46 48 48 49 51 55 55 58 59 62 64 65 65 65 66 67 69 71 73 72 72 73 74 70
34 37 39 39 40 39 38 39 39 35 34 34 35 36 34 36 43 45 50 51 51 52 53 53 54 57 62 63 63 63 64 65 66 68 67 67 65 64 64 64 65 66 67 68
36 36 37 38 39 39 39 38 38 37 36 37 37 38 37 38 40 46 48 52 55 56 57 59 62 64 64 63 64 65 65 65 66 65 61 59 59 59 57 56 58 61 62 63
37 37 36 36 37 38 38 38 38 39 37 40 40 38 39 39 42 44 47 50 52 56 61 63 63 64 65 66 67 66 64 62 60 61 61 59 56 56 56 58 58 60 63 64
33 33 32 34 35 35 36 37 38 40 40 41 41 39 40 41 43 46 48 50 52 53 56 58 60 61 63 62 61 62 61 59 59 59 55 54 55 55 55 55 55 55 57 60
31 28 30 32 33 34 35 37 40 42 42 41 40 41 41 41 43 46 49 49 49 52 55 57 58 60 60 59 58 60 60 61 60 57 55 54 56 57 56 55 55 55 54 55
28 26 28 29 32 33 35 36 38 41 41 39 41 42 41 42 43 46 47 49 52 53 55 57 59 61 59 57 58 59 60 60 58 56 56 56 57 57 56 55 55 54 54 55
28 25 27 28 29 30 31 32 33 34 35 36 39 41 42 42 43 43 46 49 51 53 55 55 57 57 55 58 59 59 58 57 57 57 58 57 57 56 57 57 56 55 55 55
27 24 25 25 24 25 25 25 26 27 28 32 36 38 40 41 42 44 45 46 49 52 54 56 57 57 59 59 59 57 57 57 58 58 57 58 58 58 57 56 56 55 56 56
28 26 25 23 22 22 22 22 23 25 28 30 33 36 38 39 40 42 44 46 48 50 51 54 55 56 58 58 57 57 57 59 57 57 58 58 58 58 57 56 56 57 56 56
27 28 25 23 20 21 22 22 23 24 26 28 31 33 35 38 39 40 43 45 47 49 51 52 53 55 55 56 57 57 57 57 56 57 57 58 57 56 57 57 57 57 56 56
27 28 27 24 20 20 21 22 23 24 27 29 31 33 34 35 37 40 42 44 45 47 49 51 52 53 56 57 57 57 56 56 57 58 57 56 57 57 57 57 56 56 58 59
28 27 26 26 24 21 21 23 25 26 28 30 31 33 34 35 37 39 41 42 44 47 49 50 52 54 54 54 54 55 56 56 55 54 55 56 57 57 57 57 58 59 60 62
29 29 28 27 26 25 23 22 25 27 30 31 32 33 35 36 38 39 41 42 44 46 48 49 50 51 52 53 54 54 54 54 54 55 56 56 57 57 58 58 59 60 62 64
32 32 31 31 28 27 27 26 25 26 28 30 32 34 35 37 38 40 41 43 44 45 46 48 49 50 51 51 51 52 52 53 54 55 56 56 57 57 58 59 61 63 64 65

GFSNGP_250_spd_132.txt.gz
Wind_Speed
120 117 113 110 107 105 105 100 91 73 70 73 66 64 60 56 52 47 43 41 38 37 36 34 29 26 23 21 21 20 21 21 20 13 10 11 8 8 6 9 11 10 12 16
110 108 105 98 94 97 91 80 67 62 60 60 57 52 49 47 44 42 38 35 32 29 26 23 21 20 20 21 24 23 21 21 18 9 10 11 8 7 4 6 6 7 11 11
101 97 91 77 85 80 66 58 55 55 53 49 46 44 41 40 39 37 32 27 24 21 19 18 18 19 23 28 27 25 22 19 13 12 10 10 8 8 7 6 8 9 11 15
93 85 72 66 65 59 50 50 48 48 44 39 38 39 39 37 36 32 26 23 20 19 18 19 19 22 28 30 26 27 20 19 16 16 12 14 13 14 14 13 12 16 16 18
73 65 57 53 55 45 44 45 39 37 35 34 36 38 37 37 35 29 23 20 18 18 20 21 24 28 32 31 29 28 27 22 19 18 19 19 20 22 18 20 21 23 22 22
57 49 41 49 45 39 38 38 32 32 31 34 37 38 37 37 33 27 20 18 17 21 24 24 28 30 31 31 32 33 29 23 26 28 22 25 23 25 28 26 26 27 28 29
41 37 35 44 38 35 33 32 30 30 31 35 37 36 36 33 30 24 19 18 20 26 27 27 30 31 32 31 32 32 32 32 28 26 27 31 29 29 29 32 31 30 32 33
35 31 36 37 35 31 30 29 28 31 32 34 38 36 33 30 27 24 20 18 24 27 29 27 32 33 31 31 32 35 35 37 37 34 33 35 37 37 39 38 41 36 36 36
30 32 34 34 30 29 29 29 31 31 33 36 39 37 30 28 25 26 23 25 27 31 34 34 37 36 33 34 36 37 39 41 43 43 43 43 44 44 43 44 44 42 41 42
30 34 30 30 29 28 29 31 33 32 36 37 36 37 29 28 27 26 29 28 29 36 37 36 35 40 40 40 43 41 43 47 47 50 50 51 53 53 53 53 52 52 52 52
27 31 27 28 30 30 33 34 34 37 38 38 34 35 32 29 29 29 31 33 36 34 41 44 44 42 45 48 49 50 50 50 51 54 56 57 58 59 59 60 61 63 64 65
28 28 27 29 32 34 35 36 38 40 41 39 35 33 36 32 32 31 34 36 39 44 43 47 47 50 50 50 53 54 58 62 62 64 64 64 63 62 62 62 63 64 67 68
25 28 30 33 36 36 38 41 44 45 43 40 38 37 38 36 34 34 36 41 41 45 48 49 49 52 54 59 59 59 60 60 63 65 66 64 64 66 67 66 68 68 68 68
28 30 32 35 38 41 43 46 48 47 45 42 41 41 40 40 37 37 37 40 47 46 52 51 52 53 54 56 57 61 64 64 66 64 63 66 69 69 67 66 62 60 60 60
29 33 36 40 43 47 49 49 47 46 45 44 44 42 42 42 39 40 40 41 45 49 51 55 56 58 59 60 62 63 64 65 67 66 65 62 63 63 60 57 57 59 60 59
33 38 43 46 48 46 45 43 43 43 43 43 43 44 43 42 41 42 42 42 43 47 53 56 59 61 62 64 66 65 66 67 67 67 66 63 61 60 56 56 57 60 60 61
39 42 42 41 39 39 40 41 41 43 43 43 43 44 41 41 43 43 43 43 44 45 50 56 58 60 61 64 65 65 65 67 66 64 65 63 63 62 59 58 58 59 61 63
38 37 37 36 34 35 37 39 39 41 41 42 43 43 40 41 42 43 44 45 45 47 49 51 54 56 58 61 63 63 64 65 65 65 63 63 61 60 60 60 60 61 62 62
35 35 36 33 32 34 37 38 40 40 39 40 42 42 41 42 43 44 45 46 48 48 50 52 54 55 58 61 62 63 64 66 65 64 62 61 61 60 60 61 62 62 62 63
37 35 35 32 31 33 35 36 37 35 35 35 36 38 40 43 44 45 45 46 47 49 49 52 54 56 59 60 62 64 66 66 64 62 62 60 60 61 61 61 61 62 62 60
34 33 33 31 29 31 31 31 31 30 30 31 32 35 37 40 42 44 46 46 47 47 48 51 53 55 58 61 63 64 65 63 61 61 62 62 61 61 60 61 61 61 60 60
30 29 31 31 28 28 28 27 26 26 27 29 30 32 34 37 39 41 43 44 45 46 48 49 50 53 56 58 59 58 58 59 61 61 61 61 60 59 60 61 60 59 59 60
28 28 29 30 28 26 27 26 25 25 25 27 29 30 31 32 35 38 41 42 44 46 47 48 50 52 54 56 56 57 59 59 59 60 59 58 59 59 59 59 59 60 61 62
31 30 29 28 28 27 27 27 25 25 25 26 27 29 30 31 33 36 39 41 44 45 46 48 50 51 51 53 54 56 56 56 56 56 58 58 58 58 58 60 61 62 62 62
33 32 32 31 30 28 28 27 27 26 26 27 27 28 30 32 34 36 37 40 42 44 45 46 47 49 50 51 51 52 54 55 56 56 57 57 57 58 60 61 61 61 61 61
33 32 33 35 34 32 31 29 27 27 29 29 29 30 31 32 33 34 36 39 41 42 43 44 46 47 48 49 50 51 53 54 55 55 56 57 59 60 60 60 60 61 61 62
32 33 35 36 37 36 34 32 31 30 29 30 31 32 32 33 34 35 36 38 39 41 42 43 45 46 48 49 50 51 52 53 54 55 57 58 59 60 60 60 60 60 62 63